Regional Weather Roundup
Issued by NWS Grand Forks, ND

Home | Current Version | Previous Version | Text Only | Print | Product List | Glossary On
Versions: 1 2 3 4 5 6 7 8 9 10 11 12 13 14 15 16 17 18 19 20 21 22 23 24 25 26 27 28 29 30 31 32 33 34 35 36 37 38 39 40 41 42 43 44 45 46 47 48 49 50
000
ASUS43 KFGF 241731
RWRFGF
PRAIRIE TO PINES  WEATHER ROUNDUP
NATIONAL WEATHER SERVICE EASTERN NORTH DAKOTA/GRAND FORKS ND
1100 AM CST TUE JAN 24 2017

 **SATELLITE DATA USED TO AUGMENT SKY COVER AT AUTOMATED STATIONS**
 *****  WEATHER ACROSS EASTERN NORTH DAKOTA  *****

CITY           SKY/WX    TMP DP  RH WIND       PRES   REMARKS
GRAND FORKS    CLOUDY    28  20  71 W8        29.89R WCI  20
GRAND FRKS AFB CLOUDY    27  21  77 NW7       29.89R WCI  20
DEVILS LAKE    CLOUDY    21  19  93 NW10      29.87R WCI  10
FARGO          CLOUDY    28  22  78 NW8       29.90S WCI  20
WAHPETON ARPT  CLOUDY    30  28  93 NW5       29.89S
$$

 ***** WEATHER ACROSS CENTRAL AND WESTERN NORTH DAKOTA  *****

CITY           SKY/WX    TMP DP  RH WIND       PRES   REMARKS
BISMARCK       CLOUDY    25  18  74 N7        29.90S WCI  17
MINOT          CLOUDY    23  16  74 W14       29.88R WCI  11
JAMESTOWN      CLOUDY    24  19  81 W8        29.87R WCI  15
MINOT AFB      CLOUDY    20  16  82 W16       29.87R WCI   6
GARRISON         N/A     22  17  81 W8        29.87R WCI  12
WILLISTON      FLURRIES  20  15  81 NW8       29.92R WCI  10
DICKINSON      CLOUDY    20  15  81 NW12      29.84R WCI   8
HETTINGER      CLOUDY    21  18  88 NW10      29.87R WCI  10
$$

 *****  OTHER AIRPORT OBSERVATIONS IN OUR AREA  *****

CITY           SKY/WX    TMP DP  RH WIND       PRES   REMARKS
WALHALLA       NOT AVBL
GRAFTON AIRPOR PTSUNNY   25  23  93 SW7       29.90R WCI  17
VALLEY CITY AR CLOUDY    25  25 100 W6        29.89S WCI  18
CANDO          NOT AVBL
CAVALIER APRT  CLOUDY    27  23  86 W6        29.86F WCI  20
GWINNER        PTSUNNY   30  28  93 N9        29.88S WCI  22
SHEYENNE NWR     N/A     28  24  83 N5        29.95S WCI  23
ROLLA            N/A    N/A N/A N/A MISG        N/A
 ***** THE ABOVE OBSERVATIONS ARE NON NWS ARE NOT QUALITY
       CONTROLLED AND MAY MIS-REPORT RAIN FOR SNOW...
$$

  *****  WEATHER ACROSS NORTHERN MINNESOTA  *****

CITY           SKY/WX    TMP DP  RH WIND       PRES   REMARKS
FLAG ISLAND    CLOUDY    25  23  93 S9        29.84F WCI  15
WARROAD        CLOUDY    27  21  80 SW7       29.86F WCI  19
ROSEAU         PTSUNNY   27  21  80 SW9       29.86S WCI  17
HALLOCK        CLOUDY    28  25  86 W6        29.86S WCI  22
THF RVR FALLS  CLOUDY    25  21  85 W8        29.89R WCI  16
BAUDETTE       CLOUDY    24  20  84 S3        29.86F
WASKISH        CLOUDY    27  23  86 W9        29.88S WCI  17
CROOKSTON        N/A     27  21  80 SW8       29.90S WCI  18
STEPHEN NDAWN    N/A     27  21  80 SW6         N/A  WCI  20
GREENBUSH NDAW   N/A     27  23  86 SW7         N/A  WCI  19
$$
  *****  WEATHER ACROSS CENTRAL AND WEST MINNESOTA  *****

CITY           SKY/WX    TMP DP  RH WIND       PRES   REMARKS
FOSSTON        CLOUDY    25  19  80 W6        29.88F WCI  18
BEMIDJI        CLOUDY    27  24  86 W7        29.86F WCI  20
PARK RAPIDS    CLOUDY    29  22  75 CALM      29.86S
ELBOW LAKE     CLOUDY    31  26  84 E3        29.87S FOG
WADENA         CLOUDY    28  23  80 CALM      29.85F
DETROIT LAKES  CLOUDY    28  27  93 N5        29.88S WCI  23
MOORHEAD       CLOUDY    27  21  80 N5        29.90S WCI  21
FERGUS FALLS   CLOUDY    30  25  80 N3        29.91S
MORRIS MN      FAIR      34  28  80 N6        29.85F
STAPLES        CLOUDY    30  23  74 CALM      29.86F
$$
  *****  WEATHER ELSEWHERE ACROSS MINNESOTA  *****

CITY           SKY/WX    TMP DP  RH WIND       PRES   REMARKS
DULUTH         CLOUDY    31  25  78 NW6       29.85S
INTRNTL FALLS  CLOUDY    27  22  81 SW6       29.87S WCI  20
ELY            CLOUDY    28  27  93 CALM      29.85S
CLOQUET        CLOUDY    30  25  80 W5        29.86F
WHEATON        FAIR      30  27  86 N5        29.89F
BRAINERD       CLOUDY    30  24  78 CALM      29.87F
HIBBING        CLOUDY    27  24  89 NW6       29.86S WCI  20
ALEXANDRIA     CLOUDY    31  26  82 E3        29.85F
SAINT CLOUD    CLOUDY    32  26  78 NE5       29.87F
MINNEAPOLIS    CLOUDY    32  25  75 NE9       29.88S WCI  24
$$

  *****  WEATHER ACROSS SOUTH DAKOTA  *****

CITY           SKY/WX    TMP DP  RH WIND       PRES   REMARKS
SIOUX FALLS    CLOUDY    32  30  92 E15       29.77F WCI  22
BROOKINGS      CLOUDY    29  27  92 E15       29.79S FOG     WCI  18
WATERTOWN      CLOUDY    28  26  92 E13       29.80S WCI  17
HURON          CLOUDY    31  29  92 E14       29.79S WCI  21
SISSETON         N/A     31  29  92 NE8       29.86S WCI  23
ABERDEEN       LGT SNOW  29  24  82 N10       29.86R WCI  20
MITCHELL       CLOUDY    33  31  92 E14       29.77R WCI  23
PIERRE         LGT SNOW  27  26  96 NE17      29.78R VSB 3/4 WCI  14
MOBRIDGE       LGT SNOW  24  18  77 N17       29.83R WCI  11
RAPID CITY     LGT SNOW  20  18  92 NW22      29.78R FOG     WCI   3
$$

  *****  SOME WEATHER IN NEARBY STATES *****

CITY           SKY/WX    TMP DP  RH WIND       PRES   REMARKS
GLASGOW MT     LGT SNOW  20  17  88 W10       29.92R FOG     WCI   9
GREAT FALLS MT FAIR      15  10  80 SW12      29.88S WCI   2
CHEYENNE WY    CLOUDY    19  17  92 N14G23    29.60R FOG     WCI   6
SCOTTSBLUFF NE HAZE      22  16  78 N15G24    29.70R VSB 1   WCI   9
OMAHA NE       CLOUDY    33  27  78 E12G23    29.70F WCI  24
DES MOINES IA  CLOUDY    32  29  88 E9        29.83F WCI  24
DAVENPORT IA   CLOUDY    35  30  82 SE7       29.89S
CHICAGO IL     CLOUDY    35  31  85 N6        29.89S
EAU CLAIRE WI  CLOUDY    33  31  92 CALM      29.86F
LA CROSSE WI   CLOUDY    36  30  79 NW3       29.89R
$$

  *****  SOME NATIONAL WEATHER *****

CITY           SKY/WX    TMP DP  RH WIND       PRES   REMARKS
LA GUARDIA NY  HVY RAIN  39  35  86 N20G25    29.31F FOG
RALEIGH NC     FAIR      57  37  47 NW6G18    29.63F
ATLANTA GA     FAIR      52  40  63 NW13      29.87S
NEW ORLEANS LA FAIR      62  50  64 SE8       29.97F
OKLAHOMA CITY  FAIR      62  35  36 S21       29.58S
ALBUQUERQUE NM FAIR      37  17  44 W28G36    29.75R
SALT LAKE CITY LGT SNOW  30  22  72 SE5       29.80R
LOS ANGELES CA FAIR      48  40  73 NE6       30.02R
BOISE ID       FAIR      23  18  81 NW7       29.84R WCI  15
SEATTLE WA     CLOUDY    34  31  88 CALM      30.11R
$$

*** WEATHER ACROSS MANITOBA...SASKATCHEWAN AND ONTARIO ***
                ***ONTARIO***

CITY           SKY/WX    TMP DP  RH WIND       PRES   REMARKS
GERALDTON      FOG       34  32  93 NW5       29.81S VSB 1
THUNDER BAY    CLOUDY    37  32  81 W6        29.85S
SIOUX LOOKOUT  CLOUDY    28  25  86 W6        29.82F WCI  22
TORONTO        CLOUDY    32  25  74 NW12G17   29.69F WCI  23
BIG TROUT LK   CLOUDY    25  25 100 SE5       29.81  WCI  19
PICKLE LAKE    FLURRIES  32  30  93 SW3       29.79S
DRYDEN         CLOUDY    27  25  93 SW8       29.82F WCI  18
KENORA         FRZ DRZL  25  23  93 S7        29.83R WCI  17
$$
                *** MANITOBA***

CITY           SKY/WX    TMP DP  RH WIND       PRES   REMARKS
BRANDON        PTSUNNY   23  18  80 NW12      29.85R WCI  12
DAUPHIN        FLURRIES  21  18  86 N10       29.88S WCI  10
ISLAND LAKE    LGT SNOW  30  30 100 CALM      29.79R VSB 5/8
PILOT MOUND      N/A     21  19  93 NW9         N/A  WCI  11
THE PAS        CLOUDY    14   9  79 NW10      29.92R WCI   1
THOMPSON       FLURRIES  14  10  85 N5        29.88S WCI   6
WINNIPEG       FLURRIES  27  25  93 W14       29.83R WCI  15
LYNN LAKE      FLURRIES   9   5  85 NW6       29.89R WCI  -1
CHURCHILL      FLURRIES  10   9  92 CALM      29.95S
GILLAM         FLURRIES  12   9  85 N6        29.88S WCI   3
$$
                ***SASKATCHEWAN***

CITY           SKY/WX    TMP DP  RH WIND       PRES   REMARKS
ESTEVAN        FLURRIES  16  14  93 NW15      29.89R WCI   1
KINDERSLEY     FLURRIES  10   7  85 N5        29.94R WCI   2
LLOYDMINSTER   LGT SNOW   7   5  92 W7        29.94S FOG     WCI  -5
PRINCE ALBERT  FLURRIES   9   3  78 NW6       29.97R WCI  -1
REGINA         FLURRIES  16  10  79 NW12      29.91R WCI   3
YORKTON        FLURRIES  14  10  85 NW10      29.87S WCI   1
N. BATTLEFORD  MOSUNNY    5   1  85 NW6       30.00R WCI  -6
LA RONGE       FLURRIES   5   0  78 W8        29.98R WCI  -8
SASKATOON      FLURRIES   9   3  78 N12       29.98R WCI  -6
SWIFT CURRENT  FLURRIES  10   9  92 NW12      29.88R WCI  -4
$$
NOTE: THESE ARE AUTOMATED STATIONS WITH LIMITED QUALITY CONTROL
      "FAIR" INDICATES FEW OR NO CLOUDS BELOW 12,000 FEET WITH NO
      SIGNIFICANT WEATHER AND/OR OBSTRUCTIONS TO VISIBILITY.
      SKY/WX - SKY CONDITION AND SIGNIFICANT WEATHER.
      TMP - AIR TEMPERATURE.    DP   - DEWPOINT TEMPERATURE.
      RH  - RELATIVE HUMIDITY.  PRES - PRESSURE.
      HX  - HEAT INDEX.         WCI  - WIND CHILL INDEX.
$



USA.gov is the U.S. government's official web portal to all federal, state and local government web resources and services.